Home > Weather > Fairfax > Past weeks

Flag for U.S.A. Weather for the Past 2 Weeks in Fairfax, Virginia, U.S.A.

Now
30 °F

Partly sunny.


Feels Like: 18 °F
Forecast: 26 / 36 °F
Wind: 17 mph from Northwest

Location: Washington-Dulles International Airport

Current Time: Feb 10, 2016 at 8:39:49 AM

Latest Report: Feb 10, 2016 at 7:52 AM


Visibility: 10 mi

Pressure: 29.80 "Hg

Humidity: 51%

Dew point: 14 °F

Location of FairfaxLocation

Historic Weather in Fairfax — Graph

°F

Fairfax Temperature Yesterday

Maximum temperature yesterday: 39 °F (at 1:52 PM)
Minimum temperature yesterday: 30 °F (at 11:52 PM)
Average temperature yesterday: 34 °F

High & Low Weather Summary for the Past Weeks

 TemperatureHumidityPressure
High58 °F (Jan 31, 2:52 PM)100% (Feb 3, 10:52 AM)30.46 "Hg (Feb 3, 10:52 AM)
Low13 °F (Jan 28, 4:52 AM)34% (Jan 30, 2:52 PM)29.55 "Hg (Feb 9, 1:52 PM)
Average38 °F66%29.99 "Hg
* Reported Jan 26 6:52 AM — Feb 10 6:52 AM, Fairfax, Weather by CustomWeather, © 2016

Note: Actual official high and low records may vary slightly from our data, if they occured in-between our weather recording intervals... More about our weather records

Advertising

Fairfax Weather History for the Previous 24 Hours

 ConditionsComfort  
Time TempWeatherWind HumidityBarometerVisibility
6:52 AM
Wed, Feb 10
29 °FPassing clouds.16 mph54%29.77 "Hg10 mi
5:52 AM30 °FOvercast.18 mph54%29.75 "Hg10 mi
4:52 AM30 °FOvercast.13 mph56%29.73 "Hg10 mi
3:52 AM28 °FMostly cloudy.3 mph66%29.72 "Hg10 mi
2:52 AM29 °FOvercast.10 mph66%29.72 "Hg10 mi
1:52 AM29 °FMostly cloudy.14 mph69%29.71 "Hg7 mi
12:52 AM30 °FMostly cloudy.14 mph61%29.70 "Hg10 mi
11:52 PM
Tue, Feb 9
30 °FMostly cloudy.15 mph61%29.70 "Hg10 mi
10:52 PM31 °FMostly cloudy.13 mph59%29.70 "Hg10 mi
9:52 PM31 °FPassing clouds.13 mph57%29.69 "Hg10 mi
8:52 PM31 °FPartly cloudy.13 mph59%29.68 "Hg10 mi
7:52 PM33 °FPartly cloudy.17 mph56%29.66 "Hg10 mi
6:52 PM34 °FPassing clouds.15 mph61%29.65 "Hg10 mi
5:52 PM34 °FPassing clouds.6 mph70%29.62 "Hg10 mi
4:52 PM36 °FBroken clouds.13 mph64%29.60 "Hg10 mi
3:52 PM36 °FLight snow. Partly sunny.8 mph73%29.58 "Hg4 mi
2:59 PM37 °FPartly sunny.10 mph73%29.56 "Hg10 mi
1:52 PM39 °FCloudy.12 mph79%29.55 "Hg3 mi
1:02 PM36 °FFog.9 mph85%29.55 "Hg3 mi
12:59 PM36 °FLight snow. Fog.10 mph85%29.55 "Hg1 mi
11:56 AM36 °FLight rain. Fog.5 mph89%29.57 "Hg1 mi
10:52 AM34 °FLight snow. Fog.3 mph92%29.59 "Hg1 mi
9:52 AM33 °FLight snow. Fog.6 mph96%29.59 "Hg1 mi
9:03 AM33 °FLight snow. Fog.No wind96%29.58 "Hg1 mi
8:59 AM33 °FLight snow. Fog.No wind96%29.58 "Hg1 mi
Weather by CustomWeather, © 2016

See weather overviewHow to use our weather pages